Date String (YYYY-MM-DD hh:mm:ss) UTC,Instrument flags,Ambient pressure (hPa),Sample flow (lpm),Bypass flow (lpm),Sample temperature (°C),Ambient temperature (°C),ASC tube jacket temperature (°C),LED temperature (°C),Box temperature (°C),Sample RH (%),Span deviation,Mass concentration (μg/m³),Mass concentration (μg/m³),Mass concentration (μg/m³)
DateTimeUTC,F1_M11,P_M11,Q1_M11,Q2_M11,T1_M11,T2_M11,T3_M11,T4_M11,T5_M11,U1_M11,ZSPAN_M11,X2_M11,X0_M11,X1_M11
2023-05-07 02:00:00,,0825.9,5.02,0.00,30.6,29.3,00.0,38.8,32.1,09.5,0000.0,0003.40,0009.57,0001.85
2023-05-07 02:01:00,,0825.9,5.01,0.00,30.6,29.3,00.0,38.9,32.1,09.4,0000.0,0003.51,0010.31,0001.86
2023-05-07 02:02:00,,0826.0,5.01,0.00,30.6,29.3,00.0,38.9,32.1,09.3,0000.0,0003.54,0010.24,0001.87
2023-05-07 02:03:00,,0826.0,4.99,0.00,30.6,29.3,00.0,38.9,32.1,09.4,0000.0,0003.57,0010.75,0001.87
2023-05-07 02:04:00,,0826.0,4.99,0.00,30.6,29.3,00.0,38.9,32.2,09.2,0000.0,0003.62,0010.81,0001.86
2023-05-07 02:05:00,,0826.0,5.00,0.00,30.6,29.3,00.0,38.9,32.1,09.2,0000.0,0003.68,0011.43,0001.88
2023-05-07 02:06:00,,0826.0,5.00,0.00,30.7,29.4,00.0,38.9,32.1,09.2,0000.0,0003.71,0012.25,0001.88
2023-05-07 02:07:00,,0826.1,4.99,0.00,30.7,29.4,00.0,39.0,32.1,09.1,0000.0,0003.70,0012.45,0001.88
2023-05-07 02:08:00,,0826.1,5.02,0.00,30.7,29.4,00.0,39.0,32.2,09.1,0000.0,0003.72,0013.27,0001.89
2023-05-07 02:09:00,,0826.2,4.99,0.00,30.7,29.4,00.0,39.0,32.2,09.1,0000.0,0003.73,0013.67,0001.90
2023-05-07 02:10:00,,0826.2,4.98,0.00,30.7,28.8,00.0,39.0,32.2,09.1,0000.0,0003.74,0014.14,0001.91
2023-05-07 02:11:00,,0826.2,5.00,0.00,30.7,26.8,00.0,38.9,31.9,09.1,0000.0,0003.73,0014.75,0001.93
2023-05-07 02:12:00,,0826.2,5.00,0.00,30.6,26.0,00.0,38.8,31.7,09.2,0000.0,0003.71,0014.76,0001.94
2023-05-07 02:13:00,,0826.2,5.01,0.00,30.4,26.1,00.0,38.7,31.4,09.1,0000.0,0003.69,0014.50,0001.93
2023-05-07 02:14:00,,0826.2,5.00,0.00,30.3,26.5,00.0,38.8,31.4,09.1,0000.0,0003.64,0013.94,0001.93
2023-05-07 02:15:00,,0826.2,4.99,0.00,30.3,26.8,00.0,38.7,31.5,09.2,0000.0,0003.62,0013.95,0001.93
2023-05-07 02:16:00,,0826.2,5.00,0.00,30.2,27.2,00.0,38.7,31.5,09.1,0000.0,0003.62,0013.43,0001.92
2023-05-07 02:17:00,,0826.2,5.00,0.00,30.2,27.5,00.0,38.7,31.5,09.1,0000.0,0003.61,0013.11,0001.91
2023-05-07 02:18:00,,0826.2,4.99,0.00,30.2,27.7,00.0,38.7,31.6,09.1,0000.0,0003.64,0013.35,0001.91
2023-05-07 02:19:00,,0826.2,4.99,0.00,30.2,28.0,00.0,38.7,31.6,09.2,0000.0,0003.63,0012.28,0001.93
2023-05-07 02:20:00,,0826.2,4.99,0.00,30.2,28.1,00.0,38.7,31.7,09.1,0000.0,0003.62,0011.74,0001.92
2023-05-07 02:21:00,,0826.1,5.01,0.00,30.2,28.3,00.0,38.7,31.7,09.0,0000.0,0003.59,0011.15,0001.92
2023-05-07 02:22:00,,0826.1,5.01,0.00,30.2,28.4,00.0,38.7,31.7,09.0,0000.0,0003.55,0010.09,0001.91
2023-05-07 02:23:00,,0826.1,4.99,0.00,30.2,28.5,00.0,38.7,31.7,09.0,0000.0,0003.47,0009.27,0001.90
2023-05-07 02:24:00,,0826.2,5.01,0.00,30.3,28.6,00.0,38.7,31.8,08.9,0000.0,0003.50,0009.09,0001.90
2023-05-07 02:25:00,,0826.2,5.01,0.00,30.3,28.7,00.0,38.7,31.8,09.0,0000.0,0003.55,0010.27,0001.90
2023-05-07 02:26:00,,0826.2,4.99,0.00,30.3,28.7,00.0,38.7,31.7,09.1,0000.0,0003.52,0010.51,0001.91
2023-05-07 02:27:00,,0826.2,5.00,0.00,30.3,28.8,00.0,38.7,31.8,09.1,0000.0,0003.43,0010.75,0001.91
2023-05-07 02:28:00,,0826.2,5.00,0.00,30.3,28.8,00.0,38.7,31.8,09.4,0000.0,0003.41,0010.68,0001.93
2023-05-07 02:29:00,,0826.2,5.01,0.00,30.3,28.8,00.0,38.7,31.8,09.3,0000.0,0003.36,0010.08,0001.94
2023-05-07 02:30:00,,0826.3,5.00,0.00,30.3,28.9,00.0,38.7,31.8,09.3,0000.0,0003.30,0010.02,0001.93
2023-05-07 02:31:00,,0826.2,4.99,0.00,30.3,28.9,00.0,38.7,31.9,09.2,0000.0,0003.25,0009.93,0001.93
2023-05-07 02:32:00,,0826.2,4.99,0.00,30.4,28.9,00.0,38.7,31.9,08.8,0000.0,0003.23,0009.95,0001.93
2023-05-07 02:33:00,,0826.2,5.00,0.00,30.4,28.9,00.0,38.7,31.8,08.5,0000.0,0003.21,0010.51,0001.93
2023-05-07 02:34:00,,0826.2,5.02,0.00,30.4,28.9,00.0,38.7,31.9,08.8,0000.0,0003.21,0011.11,0001.93
2023-05-07 02:35:00,,0826.2,4.99,0.00,30.4,28.9,00.0,38.7,31.9,08.7,0000.0,0003.18,0011.00,0001.94
2023-05-07 02:36:00,,0826.2,5.00,0.00,30.4,28.9,00.0,38.7,31.9,08.5,0000.0,0003.12,0009.97,0001.93
2023-05-07 02:37:00,,0826.2,4.99,0.00,30.4,28.9,00.0,38.7,31.9,08.8,0000.0,0003.06,0009.23,0001.91
2023-05-07 02:38:00,,0826.2,5.01,0.00,30.4,28.9,00.0,38.7,31.9,08.6,0000.0,0003.09,0009.05,0001.91
2023-05-07 02:39:00,,0826.2,5.00,0.00,30.4,29.0,00.0,38.7,31.9,08.5,0000.0,0003.09,0008.57,0001.90
2023-05-07 02:40:00,,0826.2,4.99,0.00,30.4,29.0,00.0,38.8,31.9,08.3,0000.0,0003.13,0008.60,0001.89
2023-05-07 02:41:00,,0826.2,4.99,0.00,30.4,29.0,00.0,38.8,31.9,08.3,0000.0,0003.15,0009.02,0001.89
2023-05-07 02:42:00,,0826.2,4.99,0.00,30.4,29.0,00.0,38.8,31.9,08.3,0000.0,0003.18,0009.47,0001.90
2023-05-07 02:43:00,,0826.3,5.01,0.00,30.4,29.0,00.0,38.8,31.9,08.5,0000.0,0003.19,0009.52,0001.91
2023-05-07 02:44:00,,0826.3,5.00,0.00,30.5,29.0,00.0,38.8,31.9,08.5,0000.0,0003.19,0008.99,0001.90
2023-05-07 02:45:00,,0826.2,4.99,0.00,30.5,29.0,00.0,38.8,31.9,08.2,0000.0,0003.18,0008.22,0001.91
2023-05-07 02:46:00,,0826.3,5.00,0.00,30.5,29.0,00.0,38.8,32.0,08.3,0000.0,0003.19,0008.20,0001.91
2023-05-07 02:47:00,,0826.3,5.00,0.00,30.5,29.0,00.0,38.8,32.0,08.1,0000.0,0003.20,0008.92,0001.90
2023-05-07 02:48:00,,0826.3,5.00,0.00,30.5,29.0,00.0,38.8,31.9,08.2,0000.0,0003.26,0009.51,0001.91
2023-05-07 02:49:00,,0826.3,5.00,0.00,30.5,29.1,00.0,38.8,31.9,08.2,0000.0,0003.24,0009.68,0001.93
2023-05-07 02:50:00,,0826.3,4.99,0.00,30.5,29.1,00.0,38.8,32.0,08.2,0000.0,0003.27,0010.33,0001.94
2023-05-07 02:51:00,,0826.3,5.00,0.00,30.5,29.1,00.0,38.8,32.0,08.3,0000.0,0003.24,0010.13,0001.94
2023-05-07 02:52:00,,0826.3,5.00,0.00,30.5,29.1,00.0,38.9,32.0,09.1,0000.0,0003.23,0009.58,0001.94
2023-05-07 02:53:00,,0826.3,5.00,0.00,30.5,29.1,00.0,38.9,32.0,09.0,0000.0,0003.22,0009.13,0001.94
2023-05-07 02:54:00,,0826.3,5.01,0.00,30.5,29.1,00.0,38.9,32.0,09.2,0000.0,0003.23,0009.34,0001.96
2023-05-07 02:55:00,,0826.4,5.01,0.00,30.5,29.0,00.0,38.9,32.0,09.5,0000.0,0003.24,0009.60,0001.96
2023-05-07 02:56:00,,0826.4,5.00,0.00,30.5,29.0,00.0,38.9,32.0,09.4,0000.0,0003.27,0010.06,0001.97
2023-05-07 02:57:00,,0826.4,5.00,0.00,30.5,29.0,00.0,38.9,32.0,09.1,0000.0,0003.27,0010.36,0001.97
2023-05-07 02:58:00,,0826.4,4.99,0.00,30.5,29.0,00.0,38.9,32.0,08.7,0000.0,0003.29,0009.80,0001.99
2023-05-07 02:59:00,,0826.4,4.99,0.00,30.5,29.0,00.0,38.9,32.0,08.9,0000.0,0003.25,0009.08,0001.99
